sat.trackr.live / text

‹ back to catalog

STARLINK-6110

NORAD 56907 · 2023-083AH

PAYLOAD ACTIVE UNKNOWN

§ Identity

Operator
Country
US
Launch date
2023-06-12
Launch site
AFETR
Launch vehicle
Mass (kg)
RCS (m²)

Purposes: comms

External: N2YO · Heavens-Above · Gunter

§ Orbital elements

Epoch: 2026-09-20T16:23:39.505632Z

Period
94.27 min
Inclination
43.0029°
Eccentricity
0.0001539
Mean motion
15.27570005 rev/d
Perigee alt
482.0 km
Apogee alt
484.1 km
Semi-major
6,861.2 km
B*
-2.1617e-5
RAAN
49.1446°
Arg perigee
269.3850°
Mean anomaly
90.6826°
Rev number
18,173

§ Raw data

STARLINK-61101 56907U 23083AH  26263.68309613 -.00000857  00000+0 -21617-4 0  99902 56907  43.0029  49.1446 0001539 269.3850  90.6826 15.27570005181739

JSON: /api/v1/satellites/56907 · /tle

For live sub-satellite position, see the globe view (requires WebGL).

§ Visibility from observer

Set your observer location to see the next 7 days of passes ≥ 10°. The values pass through the URL so the page stays shareable.

No JS? Fill the form by hand. The geolocation button needs JavaScript.